Weather History for Plant City, FL

Change the Weather History Date:

Monday, April 28, 2014

  Actual Average Record
Temperature  
Mean Temperature 82 °F -  
Max Temperature 95 °F 85 °F 97 °F (1968)
Min Temperature 69 °F 60 °F 46 °F (1946)
Cooling Degree Days 17    
Growing Degree Days 32 (Base 50)    
Moisture  
Dew Point 64 °F    
Average Humidity 60    
Maximum Humidity 100    
Minimum Humidity 25    
Precipitation  
Precipitation 0.00 in - - ()
Sea Level Pressure  
Sea Level Pressure 29.95 in    
Wind  
Wind Speed 4 mph (South)    
Max Wind Speed 16 mph    
Max Gust Speed 18 mph    
Visibility 10 miles    
Events      
Averages and records for this station are not official NWS values.
T = Trace of Precipitation, MM = Missing Value Source: NWS Daily Summary

Daily Weather History Graph

Daily Weather History Graph

Search for Another Location

Airport:

Trip Planner

Search our weather history database for the weather conditions in past years. The results will help you decide how hot, cold, wet, or windy it might be!

Date:

Astronomy

Apr. 28, 2014 Rise Set
Actual Time 6:51 AM EDT 8:01 PM EDT
Civil Twilight 6:26 AM EDT 8:25 PM EDT
Nautical Twilight 5:57 AM EDT 8:55 PM EDT
Astronomical Twilight 5:27 AM EDT 9:25 PM EDT
Moon 6:23 AM EDT (4/28) 7:40 PM EDT (4/28)
Length of Visible Light 13h 59m
Length of Day
13h 10m
Waning Crescent, 0% of the Moon is Illuminated
Apr 28
Waning Crescent
Apr 29
New
May 6
First Quarter
May 14
Full
May 21
Last Quarter

Hourly Weather History & Observations

Time (EDT) Temp. Heat Index Dew Point Humidity Pressure Visibility Wind Dir Wind Speed Gust Speed Precip Events Conditions
12:15 AM 71.6 °F - 68.0 °F 88% 30.01 in 10.0 mi Calm Calm - N/A   Clear
12:35 AM 73.4 °F - 69.8 °F 88% 30.01 in 10.0 mi Calm Calm - N/A   Clear
12:55 AM 71.6 °F - 71.6 °F 100% 30.01 in 10.0 mi SSE 3.5 mph - N/A   Clear
1:15 AM 75.2 °F - 68.0 °F 78% 30.00 in 10.0 mi South 3.5 mph - N/A   Clear
1:35 AM 75.2 °F - 68.0 °F 78% 29.99 in 10.0 mi Calm Calm - N/A   Clear
1:55 AM 73.4 °F - 68.0 °F 83% 29.99 in 10.0 mi Calm Calm - N/A   Clear
2:15 AM 71.6 °F - 69.8 °F 94% 29.98 in 10.0 mi Calm Calm - N/A   Clear
2:35 AM 71.6 °F - 71.6 °F 100% 29.97 in 10.0 mi Calm Calm - N/A   Clear
2:55 AM 73.4 °F - 69.8 °F 88% 29.96 in 10.0 mi South 3.5 mph - N/A   Clear
3:15 AM 73.4 °F - 69.8 °F 88% 29.96 in 10.0 mi Calm Calm - N/A   Clear
3:35 AM 71.6 °F - 71.6 °F 100% 29.96 in 10.0 mi Calm Calm - N/A   Clear
3:55 AM 71.6 °F - - N/A% 29.96 in 7.0 mi Calm Calm - N/A   Clear
4:15 AM 69.8 °F - - N/A% 29.96 in 10.0 mi ESE 3.5 mph - N/A   Clear
4:35 AM 69.8 °F - - N/A% 29.96 in 7.0 mi ESE 3.5 mph - N/A   Clear
4:55 AM 69.8 °F - - N/A% 29.96 in 10.0 mi SE 4.6 mph - N/A   Clear
5:15 AM 71.6 °F - - N/A% 29.96 in 10.0 mi SE 4.6 mph - N/A   Clear
5:35 AM 71.6 °F - - N/A% 29.96 in 10.0 mi SE 3.5 mph - N/A   Clear
5:55 AM 71.6 °F - - N/A% 29.96 in 10.0 mi SE 3.5 mph - N/A   Clear
6:15 AM 71.6 °F - 69.8 °F 94% 29.97 in 10.0 mi SSE 3.5 mph - N/A   Clear
6:35 AM 71.6 °F - 68.0 °F 88% 29.96 in 10.0 mi SSE 3.5 mph - N/A   Clear
6:55 AM 71.6 °F - 68.0 °F 88% 29.97 in 10.0 mi SSE 3.5 mph - N/A   Clear
7:15 AM 71.6 °F - 68.0 °F 88% 29.97 in 10.0 mi SSE 4.6 mph - N/A   Clear
7:35 AM 71.6 °F - 68.0 °F 88% 29.97 in 10.0 mi SE 5.8 mph - N/A   Clear
7:55 AM 71.6 °F - 68.0 °F 88% 29.98 in 10.0 mi Calm Calm - N/A   Clear
8:15 AM 73.4 °F - 68.0 °F 83% 29.99 in 10.0 mi SE 3.5 mph - N/A   Clear
8:35 AM 75.2 °F - 68.0 °F 78% 29.99 in 10.0 mi SSE 4.6 mph - N/A   Clear
8:55 AM 77.0 °F - 68.0 °F 74% 29.99 in 10.0 mi SSE 8.1 mph - N/A   Clear
9:15 AM 78.8 °F - 68.0 °F 69% 29.99 in 10.0 mi SSE 5.8 mph - N/A   Clear
9:55 AM 82.4 °F 85.4 °F 68.0 °F 62% 29.99 in 10.0 mi South 13.8 mph - N/A   Clear
10:15 AM 82.4 °F 85.4 °F 68.0 °F 62% 29.99 in 10.0 mi SSE 9.2 mph 18.4 mph N/A   Clear
10:35 AM 84.2 °F 87.3 °F 68.0 °F 58% 29.99 in 10.0 mi South 16.1 mph - N/A   Clear
10:55 AM 86.0 °F 88.2 °F 66.2 °F 51% 29.99 in 10.0 mi SSE 11.5 mph - N/A   Clear
11:15 AM 86.0 °F 87.3 °F 64.4 °F 48% 29.99 in 10.0 mi SSE 10.4 mph - N/A   Clear
11:35 AM 87.8 °F 88.5 °F 62.6 °F 43% 29.99 in 10.0 mi South 11.5 mph 16.1 mph N/A   Clear
11:55 AM 87.8 °F 88.5 °F 62.6 °F 43% 29.98 in 10.0 mi SSE 9.2 mph - N/A   Clear
12:15 PM 89.6 °F 89.5 °F 60.8 °F 38% 29.98 in 10.0 mi SSE 9.2 mph - N/A   Clear
12:35 PM 89.6 °F 88.1 °F 57.2 °F 33% 29.97 in 10.0 mi South 9.2 mph 17.3 mph N/A   Clear
1:15 PM 91.4 °F 89.9 °F 57.2 °F 31% 29.96 in 10.0 mi SE 12.7 mph 16.1 mph N/A   Clear
1:35 PM 93.2 °F 91.9 °F 57.2 °F 30% 29.95 in 10.0 mi South 11.5 mph 17.3 mph N/A   Clear
1:55 PM 91.4 °F 89.9 °F 57.2 °F 31% 29.94 in 10.0 mi SE 8.1 mph 16.1 mph N/A   Clear
2:15 PM 93.2 °F 91.9 °F 57.2 °F 30% 29.94 in 10.0 mi South 12.7 mph 16.1 mph N/A   Clear
2:35 PM 93.2 °F 91.9 °F 57.2 °F 30% 29.94 in 10.0 mi SSE 9.2 mph - N/A   Scattered Clouds
2:55 PM 93.2 °F 91.9 °F 57.2 °F 30% 29.94 in 10.0 mi South 8.1 mph - N/A   Scattered Clouds
3:15 PM 93.2 °F 91.3 °F 55.4 °F 28% 29.94 in 10.0 mi South 9.2 mph - N/A   Scattered Clouds
3:35 PM 95.0 °F 92.7 °F 53.6 °F 25% 29.93 in 10.0 mi South 4.6 mph - N/A   Clear
3:55 PM 95.0 °F 92.7 °F 53.6 °F 25% 29.93 in 10.0 mi South 6.9 mph - N/A   Scattered Clouds
4:15 PM 95.0 °F 94.4 °F 59.0 °F 30% 29.92 in 10.0 mi West 9.2 mph - N/A   Scattered Clouds
4:35 PM 93.2 °F 91.9 °F 57.2 °F 30% 29.92 in 10.0 mi WSW 12.7 mph - N/A   Scattered Clouds
5:15 PM 91.4 °F 89.4 °F 55.4 °F 29% 29.92 in 10.0 mi West 10.4 mph 16.1 mph N/A   Clear
5:35 PM 91.4 °F 89.1 °F 53.6 °F 28% 29.91 in 10.0 mi West 10.4 mph - N/A   Clear
5:55 PM 91.4 °F - 51.8 °F 26% 29.91 in 10.0 mi West 12.7 mph 18.4 mph N/A   Clear
6:15 PM 89.6 °F 87.7 °F 55.4 °F 31% 29.91 in 10.0 mi West 11.5 mph - N/A   Clear
6:35 PM 89.6 °F 88.1 °F 57.2 °F 33% 29.91 in 10.0 mi West 11.5 mph - N/A   Clear
6:55 PM 87.8 °F 87.1 °F 59.0 °F 38% 29.91 in 10.0 mi West 10.4 mph - N/A   Clear
7:15 PM 86.0 °F 86.1 °F 60.8 °F 43% 29.91 in 10.0 mi WSW 9.2 mph - N/A   Clear
7:35 PM 86.0 °F 86.1 °F 60.8 °F 43% 29.91 in 10.0 mi West 6.9 mph - N/A   Clear
7:55 PM 84.2 °F 85.0 °F 62.6 °F 48% 29.91 in 10.0 mi West 5.8 mph - N/A   Clear
8:15 PM 82.4 °F 83.4 °F 62.6 °F 51% 29.91 in 10.0 mi West 3.5 mph - N/A   Clear
8:35 PM 80.6 °F 81.8 °F 62.6 °F 54% 29.91 in 10.0 mi WSW 3.5 mph - N/A   Clear
8:55 PM 80.6 °F 82.3 °F 64.4 °F 58% 29.92 in 10.0 mi WSW 3.5 mph - N/A   Clear
9:15 PM 80.6 °F 82.7 °F 66.2 °F 61% 29.92 in 10.0 mi Calm Calm - N/A   Clear
9:35 PM 78.8 °F - 68.0 °F 69% 29.93 in 10.0 mi Calm Calm - N/A   Clear
9:55 PM 77.0 °F - 68.0 °F 74% 29.92 in 10.0 mi Calm Calm - N/A   Clear
10:15 PM 75.2 °F - 68.0 °F 78% 29.92 in 10.0 mi Calm Calm - N/A   Clear
10:55 PM 75.2 °F - 69.8 °F 83% 29.94 in 10.0 mi Calm Calm - N/A   Scattered Clouds
11:15 PM 75.2 °F - 69.8 °F 83% 29.94 in 10.0 mi Calm Calm - N/A   Mostly Cloudy
11:35 PM 75.2 °F - 69.8 °F 83% 29.94 in 10.0 mi Calm Calm - N/A   Overcast
11:55 PM 77.0 °F - 69.8 °F 78% 29.95 in 10.0 mi Calm Calm - N/A   Scattered Clouds